Regional Weather Roundup
Issued by NWS

Home | Current Version | Previous Version | Graphics & Text | Print | Product List | Glossary On
Versions: 1 2 3 4 5 6 7 8 9 10 11 12 13 14 15 16 17 18 19 20 21 22 23 24 25 26 27 28 29 30 31 32 33 34 35 36 37 38 39 40 41 42 43 44 45 46 47 48 49 50
774
ASUS43 KLOT 210109
RWRIL

ILLINOIS REGIONAL WEATHER ROUNDUP
NATIONAL WEATHER SERVICE CHICAGO/ROMEOVILLE IL
800 PM CDT FRI OCT 20 2017

NOTE: "FAIR" INDICATES FEW OR NO CLOUDS BELOW 12,000 FEET WITH NO
SIGNIFICANT WEATHER AND/OR OBSTRUCTIONS TO VISIBILITY.

* THESE STATIONS ARE NOT UNDER NWS QUALITY CONTROL. THEY ALSO MAY NOT
  REPORT WEATHER SUCH AS PRECIPITATION OR FOG.

ILZ001-002-007-009-015-016-024-210200-
NORTHWEST ILLINOIS

CITY           SKY/WX    TMP DP  RH WIND       PRES   REMARKS
MOLINE         PTCLDY    67  44  43 S8        29.97R
STERLING*      CLOUDY    65  48  54 SE5         N/A
SAVANNA*       MOCLDY    63  48  59 SE9       29.98R
$$

ILZ003-004-008-010-011-017-018-210200-
NORTH CENTRAL ILLINOIS

CITY           SKY/WX    TMP DP  RH WIND       PRES   REMARKS
ROCKFORD       CLOUDY    66  48  52 S13       30.01F
FREEPORT*      PTCLDY    63  48  56 S10       30.00F
ROCHELLE*      CLOUDY    64  48  56 S8        30.02S
DE KALB*       CLOUDY    65  50  58 S12       30.04S
PERU*          CLOUDY    66  45  46 S9        30.03S
$$

ILZ005-006-012>014-019>023-210200-
NORTHEAST ILLINOIS

CITY           SKY/WX    TMP DP  RH WIND       PRES   REMARKS
CHICAGO-OHARE  CLOUDY    67  49  52 S12       30.04S
CHICAGO-MIDWAY CLOUDY    71  49  45 S10       30.05F
AURORA         CLOUDY    65  50  58 SE9       30.04F
LANSING*       PTCLDY    66  53  61 S8        30.08S
JOLIET*        PTCLDY    68  49  51 SE6       30.06S
WAUKEGAN       PTCLDY    68  50  52 S10       30.03S
DUPAGE AIRPORT CLOUDY    65  51  60 S8        30.04S
KANKAKEE*      CLOUDY    59  48  67 SE7       30.09S
WHEELING       CLOUDY    67  51  56 S8        30.05F
MORRIS*        PTCLDY    67  47  48 S9        30.04S
ROMEOVILLE*    PTCLDY    65  49  54 S8        30.06S
NORTHERLY ISL    N/A     70  48  45 S7          N/A
$$

LMZ740>746-210200-
SOUTHERN LAKE MICHIGAN

STATION/POSITION SKY/WX   TEMP    WIND        PRES    VSBY  WAVE
                          AIR SEA DIR/SP/G                  HT/PER
                          (F)     (DEG/KT/KT) (MB)    (MI)  (FT/S)
SOUTHERN BUOY              65 61  160/ 14/ 16 1017.5F         1/ 3
WILMETTE HARBOR            64 60  160/ 10/ 12   N/A           1/ 2
HARRISON CRIB              69     180/ 16/ 17   N/A
BURNHAM HARBOR             68     160/  7/ 10   N/A
CALUMET HARBOR             71     160/  7/ 10 1017.4F
BURNS HARBOR               70     180/  9/ 16 1019.0S
MICHIGAN CITY              69     160/  9/ 14   N/A
MICHIGAN CITY 6N           65 59  170/  8/ 10   N/A           1
ST. JOSEPH                 63 59  190/  6/  6 1019.0          1
$$

ILZ025>027-034>036-040-047-049-050-058-095>099-210200-
WEST-CENTRAL ILLINOIS

CITY           SKY/WX    TMP DP  RH WIND       PRES   REMARKS
QUINCY         CLOUDY    67  50  54 S12       29.98S
GALESBURG*     CLOUDY    70  55  58 SE6       30.00S
MACOMB*        PTCLDY    63  48  58 S12       30.01F
JACKSONVILLE*  CLOUDY    67  49  52 SE14G20   30.03R
PITTSFIELD*    CLOUDY    67  52  58 SE10      30.03S
$$

ILZ028>032-037-038-041>044-048-051>054-059>061-210200-
CENTRAL ILLINOIS

CITY           SKY/WX    TMP DP  RH WIND       PRES   REMARKS
PONTIAC        PTCLDY    66  48  51 S12       30.06F
BLOOMINGTON    MOCLDY    65  48  54 S16       30.07F
DECATUR        CLEAR     64  48  56 S12       30.08S
PEORIA         PTCLDY    68  46  45 S12       30.02S
LACON*         CLOUDY    65  44  46 S8        30.02S
LINCOLN*       PTCLDY    62  50  64 S8        30.05F
SPRINGFIELD    PTCLDY    69  49  48 S16       30.04F
TAYLORVILLE    PTCLDY    62  47  59 SE7       30.07S
$$

ILZ033-039-045-046-055>057-062-063-210200-
EAST-CENTRAL ILLINOIS

CITY           SKY/WX    TMP DP  RH WIND       PRES   REMARKS
CHAMPAIGN      CLOUDY    64  48  56 SE9       30.10S
DANVILLE*      CLOUDY    62  48  61 SE5       30.09S
RANTOUL*       CLOUDY    63  51  64 S5        30.10S
MATTOON        CLOUDY    65  51  60 S10       30.10S
PARIS*         CLOUDY    58  50  75 SE8       30.13R
$$

ILZ079-100>102-210200-
SOUTHWEST ILLINOIS

CITY           SKY/WX    TMP DP  RH WIND       PRES   REMARKS
ALTON          MOCLDY    66  54  63 S12       30.07R
BELLEVILLE     PTCLDY    67  50  54 SE7       30.10R
CAHOKIA*       CLOUDY    67  50  54 SE7       30.07R
SPARTA*        CLOUDY    66  52  60 SE7       30.09S
$$

ILZ064>066-069>071-074>076-080>082-084>086-088>090-092>094-210200-
SOUTH-CENTRAL ILLINOIS

CITY           SKY/WX    TMP DP  RH WIND       PRES   REMARKS
CARBONDALE     MOCLDY    62  54  74 SE8       30.11R
CAIRO*           N/A     61  54  77 SE6       30.12S HAZE
EFFINGHAM*     PTCLDY    66  49  54 SE7       30.12S
MARION         PTCLDY    66  53  61 SE6       30.13R
MT. VERNON     CLOUDY    63  49  60 S5        30.12S
CENTRALIA*     PTCLDY    66  52  61 S8        30.10R
SALEM*         PTCLDY    67  50  54 S5        30.11R
METROPOLIS*    CLOUDY    60  52  74 CALM      30.14S
$$

ILZ067-068-072-073-078-083-087-091-210200-
SOUTHEAST ILLINOIS

CITY           SKY/WX    TMP DP  RH WIND       PRES   REMARKS
LAWRENCEVILLE  PTCLDY    60  52  74 S8        30.14S
FLORA*         PTCLDY    62  51  67 SE7       30.11F
FAIRFIELD*     PTCLDY    64  48  57 SE3       30.10F
HARRISBURG*    PTCLDY    59  48  68 CALM      30.13F
ROBINSON*      CLOUDY    58  49  71 S5        30.14S
CARMI*         PTCLDY    59  51  75 SE6       30.12F
$$

ABBREVIATIONS USED IN REMARKS
   TC - TEMPERATURE IN CELSIUS
  WCI - WIND CHILL INDEX
   HX - HEAT INDEX
  VSB - VISIBILITY
$$





USA.gov is the U.S. government's official web portal to all federal, state and local government web resources and services.